[[{"header":{"parameterUnit":"m.s-1","parameterCategory":1,"la1":30.2991,"la2":30.254,"lo1":-89.0895,"lo2":-89.0444,"dy":0.0017,"dx":0.0017,"nx":28,"ny":28,"refTime":"2024-08-19T21:00:00:Z","depth":0,"parameterNumber":2,"parameterNumberName":"U-component_of_WINDS"},"data":[0,0,0,0,0,0,0,0,0,0,0,0,0,0,0,0,0,0,0,0,0,0,0,0,0,0,0,0,0,0,0,0,0,0,0,0,0,0,0,0,0,0,0,0,0,0,0,0,0,0,0,0,0,0,0,0,0,0,-2.114,-2.1139,0,-2.1067,-2.1066,-2.1065,-2.0956,-2.0954,-2.0952,-2.0951,-2.0875,-2.0875,-2.0874,0,0,0,0,0,0,0,0,0,0,0,0,0,-2.1185,-2.1185,-2.114,-2.1139,-2.1138,-2.1067,-2.1066,-2.1065,-2.0957,-2.0954,-2.0952,-2.095,-2.0875,-2.0875,-2.0874,0,0,0,0,0,0,0,0,0,0,0,0,0,-2.1144,-2.1185,-2.114,-2.1075,-2.1069,-2.1067,-2.1066,-2.1065,-2.0957,-2.0954,-2.0951,-2.0949,-2.0875,-2.0875,-2.0874,-2.0929,0,0,-2.0873,-2.0873,0,0,0,0,0,0,0,0,-2.1147,-2.1143,-2.1086,-2.108,-2.1073,-2.1018,-2.1054,-2.1019,-2.0958,-2.1,-2.0951,-2.0947,-2.0925,-2.092,-2.0912,-2.0926,-2.0923,-2.0873,-2.0873,-2.0873,-2.0873,0,0,0,0,0,0,0,-2.115,-2.1145,-2.1111,-2.1085,-2.1077,-2.105,-2.1041,-2.1047,-2.0979,-2.0996,-2.0988,-2.0981,-2.092,-2.0913,-2.091,-2.0921,-2.0873,-2.0873,-2.0873,-2.0872,-2.0977,-2.0979,0,0,0,0,0,0,-2.1162,-2.1148,-2.1113,-2.1109,-2.1103,-2.1052,-2.1041,-2.1038,-2.0979,-2.0967,-2.0983,-2.0976,-2.0915,-2.091,-2.0907,-2.0967,-2.0873,-2.0872,-2.0872,-2.0974,-2.0977,-2.0981,0,0,0,0,0,0,-2.1164,-2.116,-2.1116,-2.1126,-2.1119,-2.1054,-2.1051,-2.1038,-2.1031,-2.0969,-2.0956,-2.0988,-2.0913,-2.0907,-2.0925,-2.0963,-2.0872,-2.0872,-2.097,-2.0975,-2.0979,-2.109,0,0,0,0,0,0,-2.1165,-2.1161,-2.1182,-2.1128,-2.1119,-2.1136,-2.1053,-2.1039,-2.1031,-2.102,-2.097,-2.0959,-2.091,-2.0926,-2.0924,-2.0961,-2.0872,-2.0966,-2.0972,-2.0977,-2.1082,-2.1097,-2.111,0,0,0,0,0,-2.1167,-2.1215,-2.1183,-2.118,-2.1143,-2.1138,-2.1133,-2.1075,-2.1034,-2.1054,-2.1015,-2.0961,-2.096,-2.0929,-2.0926,-2.0963,-2.0964,-2.0971,-2.0977,-2.1076,-2.1094,-2.111,0,0,0,0,0,0,-2.1275,-2.1207,-2.1171,-2.1203,-2.1177,-2.112,-2.1143,-2.1097,-2.1082,-2.1073,-2.1002,-2.0992,-2.1018,-2.0992,-2.0959,-2.1014,-2.0953,-2.096,-2.103,-2.1047,-2.106,-2.1066,-2.0871,0,0,0,0,0,-2.1303,-2.1305,-2.1245,-2.1279,-2.1268,-2.1209,-2.1204,-2.1162,-2.1133,-2.1121,-2.1083,-2.1056,-2.1049,-2.1047,-2.1037,-2.1078,-2.1066,-2.1103,-2.1117,-2.1129,-2.1135,-2.1155,-2.1171,-2.1003,-2.1003,-2.1002,0,0,-2.1359,-2.1323,-2.1328,-2.13,-2.1275,-2.1279,-2.12,-2.1207,-2.1209,-2.1122,-2.1136,-2.1108,-2.1073,-2.1103,-2.1114,-2.1082,-2.1179,-2.1137,-2.1147,-2.1147,-2.1163,-2.1179,-2.1194,-2.1007,-2.1006,-2.1006,0,0,-2.1465,-2.1437,-2.1463,-2.144,-2.1404,-2.1363,-2.137,-2.132,-2.1297,-2.1311,-2.1246,-2.1247,-2.1237,-2.1215,-2.1203,-2.1302,-2.1252,-2.1301,-2.1374,-2.1394,-2.1407,-2.1419,-2.1454,-2.1467,-2.1307,-2.1308,-2.1308,0,-2.154,-2.1543,-2.1481,-2.1493,-2.1483,-2.1405,-2.143,-2.1411,-2.1374,-2.1368,-2.1333,-2.132,-2.1291,-2.1315,-2.1339,-2.1331,-2.1336,-2.1306,-2.141,-2.1421,-2.1431,-2.1464,-2.1477,-2.1314,-2.1313,-2.1312,-2.1312,0,-2.1637,-2.1641,-2.1665,-2.1632,-2.1624,-2.1643,-2.1584,-2.1584,-2.1543,-2.1507,-2.1522,-2.1485,-2.1467,-2.1469,-2.1429,-2.1487,-2.1469,-2.1424,-2.1361,-2.1454,-2.1484,-2.1496,-2.1322,-2.132,-2.1318,-2.1317,0,0,-2.1807,-2.174,-2.175,-2.1734,-2.1689,-2.1691,-2.1706,-2.1689,-2.169,-2.1667,-2.1678,-2.1672,-2.163,-2.1616,-2.1573,-2.1591,-2.1672,-2.1543,-2.1541,-2.1568,-2.1734,-2.1768,-2.1784,-2.1639,-2.1641,-2.1643,-2.1737,0,-2.1903,-2.1925,-2.1871,-2.1907,-2.1909,-2.1836,-2.1849,-2.1823,-2.179,-2.1787,-2.175,-2.1747,-2.1692,-2.1683,-2.1698,-2.1659,-2.1704,-2.1652,-2.1648,-2.1649,-2.1659,-2.1799,-2.1835,-2.1926,-2.1748,-2.175,-2.1751,0,-2.2018,-2.2002,-2.2038,-2.1991,-2.199,-2.2003,-2.1983,-2.1982,-2.1951,-2.1926,-2.1911,-2.1861,-2.1873,-2.1814,-2.1829,-2.1794,-2.179,-2.1771,-2.1773,-2.177,-2.1705,-2.18,-2.1953,-2.1967,-2.1769,-2.1767,-2.1766,0,-2.2138,-2.2126,-2.2146,-2.2134,-2.208,-2.2091,-2.2069,-2.2036,-2.2029,-2.2012,-2.2007,-2.1991,-2.1983,-2.1972,-2.1919,-2.1881,-2.194,-2.1877,-2.1919,-2.1921,-2.1934,-2.1934,-2.2089,-2.1933,-2.1933,-2.1932,-2.1932,0,-2.2251,-2.2276,-2.2199,-2.2211,-2.2237,-2.2175,-2.2202,-2.2173,-2.2144,-2.2149,-2.2085,-2.2091,-2.2021,-2.202,-2.1979,-2.1997,-2.1994,-2.1974,-2.1962,-2.1979,-2.1982,-2.1975,-2.1967,-2.1936,-2.1935,-2.1934,-2.1934,0,-2.2389,-2.2339,-2.2356,-2.2304,-2.2292,-2.2313,-2.2268,-2.2278,-2.2241,-2.2249,-2.2247,-2.2189,-2.2184,-2.2131,-2.2114,-2.2086,-2.2121,-2.2098,-2.2132,-2.2124,-2.2169,-2.2166,-2.2325,-2.2342,-2.2176,-2.2178,-2.2179,0,-2.2464,-2.2482,-2.2432,-2.2432,-2.2413,-2.2412,-2.2405,-2.2345,-2.234,-2.2307,-2.2321,-2.2311,-2.23,-2.2296,-2.2252,-2.2239,-2.2215,-2.2271,-2.2212,-2.2229,-2.2215,-2.2215,-2.2216,-2.2284,-2.2286,-2.2288,-2.2289,0,-2.2603,-2.2577,-2.257,-2.2555,-2.2548,-2.2533,-2.2514,-2.2517,-2.245,-2.2448,-2.2443,-2.2435,-2.2418,-2.2409,-2.2389,-2.2365,-2.2317,-2.2308,-2.2317,-2.2334,-2.2353,-2.2343,-2.2166,-2.2304,-2.2303,-2.2302,-2.2301,-2.23,-2.2711,-2.2724,-2.2691,-2.2685,-2.2664,-2.2648,-2.2655,-2.2619,-2.2614,-2.2596,-2.256,-2.2561,-2.253,-2.2497,-2.2479,-2.2478,-2.2448,-2.2462,-2.2465,-2.2469,-2.2478,-2.2354,-2.2474,-2.2473,-2.2473,-2.2472,-2.2472,0,-2.2846,-2.2822,-2.2817,-2.2792,-2.2788,-2.2743,-2.272,-2.2719,-2.272,-2.2696,-2.2686,-2.268,-2.2672,-2.2628,-2.2615,-2.2622,-2.2599,-2.2621,-2.2619,-2.2615,-2.2505,-2.2498,-2.2639,-2.2639,-2.2639,-2.2639,-2.2639,-2.2639,-2.2916,-2.2934,-2.2905,-2.2913,-2.2888,-2.2888,-2.2879,-2.2863,-2.2843,-2.284,-2.2833,-2.2805,-2.2772,-2.2756,-2.2746,-2.2734,-2.2731,-2.276,-2.274,-2.2638,-2.2622,-2.2607,-2.26,-2.276,-2.2761,-2.285,-2.285,-2.2851]},{"header":{"parameterUnit":"m.s-1","parameterCategory":1,"la1":30.2991,"la2":30.254,"lo1":-89.0895,"lo2":-89.0444,"dy":0.0017,"dx":0.0017,"nx":28,"ny":28,"refTime":"2024-08-19T21:00:00:Z","depth":0,"parameterNumber":3,"parameterNumberName":"V-component_of_WINDS"},"data":[0,0,0,0,0,0,0,0,0,0,0,0,0,0,0,0,0,0,0,0,0,0,0,0,0,0,0,0,0,0,0,0,0,0,0,0,0,0,0,0,0,0,0,0,0,0,0,0,0,0,0,0,0,0,0,0,0,0,-2.961,-2.961,0,-2.9667,-2.9667,-2.9668,-2.9667,-2.9666,-2.9665,-2.9665,-2.9716,-2.9718,-2.9721,0,0,0,0,0,0,0,0,0,0,0,0,0,-2.9493,-2.9495,-2.9609,-2.961,-2.9611,-2.9667,-2.9667,-2.9668,-2.9667,-2.9666,-2.9665,-2.9664,-2.9716,-2.9718,-2.9721,0,0,0,0,0,0,0,0,0,0,0,0,0,-2.9546,-2.9495,-2.9609,-2.9617,-2.9618,-2.9666,-2.9667,-2.9668,-2.9667,-2.9666,-2.9665,-2.9664,-2.9715,-2.9718,-2.9721,-2.9763,0,0,-2.9731,-2.9732,0,0,0,0,0,0,0,0,-2.9543,-2.955,-2.9615,-2.9617,-2.9618,-2.9659,-2.9645,-2.97,-2.9667,-2.9648,-2.9664,-2.9663,-2.9698,-2.9702,-2.9715,-2.9765,-2.9768,-2.9731,-2.9733,-2.9734,-2.9735,0,0,0,0,0,0,0,-2.9539,-2.9547,-2.9632,-2.9616,-2.9618,-2.9616,-2.9622,-2.9655,-2.9678,-2.965,-2.965,-2.9657,-2.9698,-2.9712,-2.9716,-2.9768,-2.9731,-2.9734,-2.9736,-2.9737,-2.9855,-2.9856,0,0,0,0,0,0,-2.9535,-2.9544,-2.963,-2.9634,-2.9577,-2.9619,-2.9626,-2.9647,-2.9678,-2.9682,-2.9658,-2.9657,-2.9707,-2.9713,-2.9718,-2.9768,-2.9734,-2.9737,-2.9739,-2.9853,-2.9855,-2.9856,0,0,0,0,0,0,-2.9532,-2.9542,-2.9628,-2.9589,-2.96,-2.9622,-2.9645,-2.9648,-2.9662,-2.9684,-2.9688,-2.9669,-2.9707,-2.9714,-2.9752,-2.977,-2.9738,-2.9741,-2.9852,-2.9854,-2.9855,-2.987,0,0,0,0,0,0,-2.9529,-2.9541,-2.9559,-2.959,-2.9602,-2.9663,-2.9647,-2.965,-2.9669,-2.9668,-2.9695,-2.9698,-2.9706,-2.9747,-2.9755,-2.9774,-2.9744,-2.985,-2.9853,-2.9855,-2.9868,-2.9872,-2.9876,0,0,0,0,0,-2.9525,-2.956,-2.956,-2.957,-2.9625,-2.9664,-2.9671,-2.9681,-2.967,-2.9687,-2.9701,-2.9698,-2.9767,-2.9751,-2.976,-2.978,-2.9849,-2.9852,-2.9855,-2.9866,-2.9871,-2.9875,0,0,0,0,0,0,-2.9528,-2.9564,-2.9565,-2.9611,-2.9635,-2.9664,-2.9685,-2.9686,-2.9711,-2.9709,-2.9719,-2.9725,-2.9763,-2.9775,-2.9757,-2.9822,-2.9807,-2.9811,-2.9812,-2.9817,-2.9821,-2.9816,-2.9746,0,0,0,0,0,-2.9535,-2.9566,-2.9594,-2.9632,-2.9644,-2.9663,-2.968,-2.9686,-2.971,-2.9719,-2.9736,-2.9758,-2.9784,-2.9802,-2.9827,-2.987,-2.9875,-2.9888,-2.9892,-2.9895,-2.9898,-2.992,-2.9926,-2.9865,-2.9865,-2.9865,0,0,-2.9548,-2.9571,-2.959,-2.9634,-2.9653,-2.9682,-2.9671,-2.9703,-2.9724,-2.9723,-2.9761,-2.9774,-2.9799,-2.9839,-2.9858,-2.985,-2.9916,-2.9898,-2.9901,-2.9903,-2.9924,-2.993,-2.9935,-2.9867,-2.9867,-2.9867,0,0,-2.9587,-2.9608,-2.9642,-2.9662,-2.9692,-2.9704,-2.9712,-2.9741,-2.975,-2.9789,-2.9789,-2.9813,-2.9859,-2.9877,-2.9891,-2.9937,-2.9934,-2.9945,-2.9965,-2.9986,-2.9991,-2.9995,-3.001,-3.0016,-2.9949,-2.9949,-2.9949,0,-2.9598,-2.9645,-2.9659,-2.9691,-2.971,-2.9713,-2.9746,-2.9764,-2.9799,-2.9811,-2.9803,-2.9861,-2.9878,-2.9922,-2.9933,-2.9945,-2.9953,-2.9942,-2.999,-2.9994,-2.9998,-3.0013,-3.0018,-2.995,-2.995,-2.995,-2.995,0,-2.9657,-2.969,-2.9713,-2.975,-2.9771,-2.9804,-2.982,-2.9839,-2.9844,-2.9856,-2.9894,-2.9915,-2.9944,-2.9955,-2.9959,-3.0,-2.9994,-2.9988,-2.9973,-3.0005,-3.0018,-3.0024,-2.9951,-2.9951,-2.9951,-2.995,0,0,-2.9699,-2.9744,-2.9752,-2.9769,-2.9802,-2.9826,-2.9858,-2.989,-2.9905,-2.993,-2.9955,-2.9995,-2.9989,-3.0006,-3.0012,-3.0031,-3.0064,-3.0022,-3.0023,-3.0028,-3.0109,-3.0112,-3.0118,-3.0063,-3.0064,-3.0065,-3.0106,0,-2.974,-2.98,-2.9813,-2.9863,-2.9892,-2.9895,-2.9923,-2.9945,-2.9957,-2.9982,-2.9995,-3.0022,-3.0014,-3.0024,-3.0043,-3.0056,-3.008,-3.0053,-3.0085,-3.0086,-3.0077,-3.0126,-3.013,-3.0167,-3.0112,-3.0112,-3.0113,0,-2.9796,-2.9825,-2.9878,-2.9908,-2.9921,-2.9945,-2.9975,-2.9999,-3.0024,-3.0031,-3.0051,-3.0054,-3.0085,-3.007,-3.0111,-3.0093,-3.0106,-3.0115,-3.0116,-3.0118,-3.01,-3.0128,-3.018,-3.0185,-3.0122,-3.0121,-3.0121,0,-2.982,-2.9871,-2.991,-2.9924,-2.996,-2.9977,-2.9992,-3.0016,-3.0034,-3.0059,-3.007,-3.0098,-3.0112,-3.0132,-3.0143,-3.0131,-3.0183,-3.0169,-3.0188,-3.0188,-3.0198,-3.0197,-3.0251,-3.0209,-3.0209,-3.0209,-3.0209,0,-2.9864,-2.9896,-2.9921,-2.9944,-2.998,-2.9994,-3.0028,-3.0043,-3.0064,-3.0089,-3.0093,-3.0115,-3.0128,-3.0152,-3.016,-3.0193,-3.0199,-3.0205,-3.0206,-3.0204,-3.0203,-3.0212,-3.0209,-3.021,-3.021,-3.021,-3.0209,0,-2.9895,-2.9914,-2.9956,-2.9987,-2.9995,-3.002,-3.0045,-3.0067,-3.008,-3.0111,-3.0119,-3.0139,-3.0167,-3.018,-3.0214,-3.0219,-3.0256,-3.0256,-3.0248,-3.0249,-3.0267,-3.0265,-3.0328,-3.0336,-3.029,-3.029,-3.0291,0,-2.9922,-2.9947,-2.9981,-3.0,-3.0016,-3.0045,-3.0064,-3.0078,-3.0097,-3.0127,-3.0145,-3.0174,-3.0198,-3.0243,-3.0258,-3.0284,-3.0284,-3.0305,-3.0288,-3.0285,-3.0283,-3.0281,-3.0283,-3.0307,-3.0308,-3.0308,-3.0308,0,-2.9966,-2.9974,-3.0002,-3.0034,-3.0057,-3.0082,-3.0106,-3.012,-3.0138,-3.0158,-3.0189,-3.0208,-3.0244,-3.0272,-3.0299,-3.0312,-3.0312,-3.0314,-3.0319,-3.0316,-3.031,-3.0313,-3.0255,-3.0312,-3.0311,-3.0311,-3.0311,-3.0311,-2.9995,-3.0017,-3.0045,-3.0076,-3.0097,-3.012,-3.0142,-3.0158,-3.0185,-3.0217,-3.0223,-3.0255,-3.0278,-3.0315,-3.0329,-3.0352,-3.0347,-3.0356,-3.0358,-3.0359,-3.036,-3.0308,-3.0357,-3.0357,-3.0357,-3.0357,-3.0357,0,-3.0038,-3.0057,-3.0086,-3.0121,-3.0145,-3.0146,-3.0173,-3.0192,-3.0221,-3.0244,-3.0268,-3.0302,-3.0329,-3.0348,-3.0375,-3.039,-3.0391,-3.0397,-3.0395,-3.0398,-3.0363,-3.0355,-3.0396,-3.0396,-3.0396,-3.0396,-3.0396,-3.0396,-3.0063,-3.0101,-3.0113,-3.016,-3.0178,-3.0211,-3.0226,-3.0246,-3.0265,-3.0304,-3.0327,-3.034,-3.036,-3.0389,-3.0413,-3.0418,-3.0427,-3.0433,-3.0437,-3.0404,-3.04,-3.0396,-3.0389,-3.0435,-3.0435,-3.0469,-3.0469,-3.0469]}]]